Hourly Weather Abaete

Today, 20 October, Tuesday

Time Temperature Precipitation Wind Pressure Humidity
00:00 +19°C° 0.1 mm 0 mps 707 mmHg 91%
01:00 +19°C° 0.1 mm 0 mps 707 mmHg 91%
02:00 +21°C° 0.1 mm 1 mps 707 mmHg 91%
03:00 +21°C° 0.1 mm 1 mps 706 mmHg 91%
04:00 +21°C° 0.3 mm 1 mps 707 mmHg 92%
05:00 +21°C° 0.3 mm 1 mps 707 mmHg 92%
06:00 +19°C° 0.3 mm 0 mps 708 mmHg 92%
07:00 +21°C° 1.6 mm 1 mps 708 mmHg 93%
08:00 +21°C° 1.6 mm 1 mps 708 mmHg 94%
09:00 +20°C° 1.6 mm 1 mps 709 mmHg 95%
10:00 +21°C° 2.4 mm 1 mps 709 mmHg 95%
11:00 +21°C° 2.4 mm 1 mps 709 mmHg 95%
12:00 +21°C° 2.4 mm 1 mps 709 mmHg 96%
13:00 +21°C° 3.1 mm 1 mps 708 mmHg 96%
14:00 +20°C° 3.1 mm 2 mps 707 mmHg 96%
15:00 +20°C° 3.1 mm 2 mps 707 mmHg 96%
16:00 +20°C° 0.8 mm 2 mps 707 mmHg 96%
17:00 +20°C° 0.8 mm 2 mps 707 mmHg 95%
18:00 +20°C° 0.8 mm 2 mps 707 mmHg 95%
19:00 +20°C° 0.6 mm 2 mps 707 mmHg 95%
20:00 +20°C° 0.6 mm 2 mps 708 mmHg 95%
21:00 +20°C° 0.6 mm 2 mps 708 mmHg 96%
22:00 +20°C° 0.5 mm 2 mps 708 mmHg 96%
23:00 +19°C° 0.5 mm 2 mps 708 mmHg 96%

Tomorrow, 21 October, Wednesday

Time Temperature Precipitation Wind Pressure Humidity
00:00 +19°C° 0.5 mm 2 mps 708 mmHg 96%
01:00 +19°C° 0.4 mm 2 mps 707 mmHg 96%
02:00 +19°C° 0.4 mm 2 mps 707 mmHg 96%
03:00 +19°C° 0.4 mm 2 mps 706 mmHg 96%
04:00 +21°C° 0.2 mm 1 mps 707 mmHg 96%
05:00 +21°C° 0.2 mm 1 mps 707 mmHg 96%
06:00 +21°C° 0.2 mm 1 mps 707 mmHg 97%
07:00 +21°C° 0.1 mm 1 mps 708 mmHg 94%
08:00 +22°C° 0.1 mm 1 mps 708 mmHg 91%
09:00 +23°C° 0.1 mm 1 mps 709 mmHg 88%
10:00 +24°C° 0.1 mm 1 mps 709 mmHg 84%
11:00 +25°C° 0.1 mm 2 mps 708 mmHg 80%
12:00 +26°C° 0.1 mm 2 mps 708 mmHg 76%
13:00 +26°C° 0.2 mm 2 mps 707 mmHg 72%
14:00 +27°C° 0.2 mm 2 mps 707 mmHg 69%
15:00 +28°C° 0.2 mm 2 mps 706 mmHg 65%
16:00 +27°C° 0.5 mm 2 mps 706 mmHg 69%
17:00 +27°C° 0.5 mm 1 mps 706 mmHg 72%
18:00 +26°C° 0.5 mm 1 mps 706 mmHg 76%
19:00 +25°C° 1 mm 1 mps 706 mmHg 79%
20:00 +25°C° 1 mm 1 mps 706 mmHg 83%
21:00 +24°C° 1 mm 1 mps 707 mmHg 86%
22:00 +24°C° 0.8 mm 1 mps 707 mmHg 87%
23:00 +24°C° 0.8 mm 1 mps 706 mmHg 88%

Day after tomorrow, 22 October, Thursday

Time Temperature Precipitation Wind Pressure Humidity
00:00 +23°C° 0.8 mm 1 mps 706 mmHg 89%
01:00 +23°C° 0.9 mm 1 mps 706 mmHg 90%
02:00 +21°C° 0.9 mm 2 mps 706 mmHg 91%
03:00 +21°C° 0.9 mm 2 mps 706 mmHg 93%
04:00 +21°C° 0.1 mm 2 mps 706 mmHg 93%
05:00 +22°C° 0.1 mm 1 mps 706 mmHg 93%
06:00 +21°C° 0.1 mm 1 mps 706 mmHg 93%
07:00 +23°C° 0 mm 1 mps 707 mmHg 87%
08:00 +25°C° 0 mm 1 mps 707 mmHg 80%
09:00 +26°C° 0 mm 1 mps 708 mmHg 74%
10:00 +27°C° 0.3 mm 1 mps 708 mmHg 70%
11:00 +28°C° 0.3 mm 1 mps 707 mmHg 66%
12:00 +30°C° 0.3 mm 1 mps 707 mmHg 62%
13:00 +30°C° 0.2 mm 1 mps 706 mmHg 60%
14:00 +30°C° 0.2 mm 1 mps 706 mmHg 59%
15:00 +30°C° 0.2 mm 2 mps 705 mmHg 57%
16:00 +29°C° 1.1 mm 2 mps 705 mmHg 64%
17:00 +28°C° 1.1 mm 2 mps 705 mmHg 71%
18:00 +26°C° 1.1 mm 2 mps 705 mmHg 78%
19:00 +26°C° 1 mm 3 mps 706 mmHg 79%
20:00 +25°C° 1 mm 3 mps 706 mmHg 81%
21:00 +24°C° 1 mm 3 mps 706 mmHg 82%
22:00 +24°C° 0.6 mm 3 mps 706 mmHg 84%
23:00 +22°C° 0.6 mm 3 mps 706 mmHg 85%

23 October, Friday

Time Temperature Precipitation Wind Pressure Humidity
00:00 +22°C° 0.6 mm 3 mps 706 mmHg 87%
01:00 +22°C° 0 mm 3 mps 706 mmHg 86%
02:00 +22°C° 0 mm 3 mps 706 mmHg 86%
03:00 +21°C° 0 mm 3 mps 706 mmHg 86%
04:00 +21°C° 0 mm 3 mps 706 mmHg 87%
05:00 +21°C° 0 mm 2 mps 706 mmHg 88%
06:00 +21°C° 0 mm 2 mps 707 mmHg 89%
07:00 +22°C° 0 mm 3 mps 707 mmHg 84%
08:00 +24°C° 0 mm 3 mps 707 mmHg 79%
09:00 +25°C° 0 mm 4 mps 708 mmHg 74%
10:00 +26°C° 0.8 mm 4 mps 708 mmHg 73%
11:00 +27°C° 0.8 mm 4 mps 707 mmHg 71%
12:00 +27°C° 0.8 mm 4 mps 707 mmHg 70%
13:00 +27°C° 1.3 mm 3 mps 706 mmHg 69%
14:00 +28°C° 1.3 mm 3 mps 706 mmHg 69%
15:00 +28°C° 1.3 mm 3 mps 705 mmHg 69%
16:00 +27°C° 0.6 mm 2 mps 705 mmHg 72%
17:00 +26°C° 0.6 mm 2 mps 705 mmHg 76%
18:00 +25°C° 0.6 mm 2 mps 705 mmHg 80%
19:00 +25°C° 0.9 mm 2 mps 705 mmHg 81%
20:00 +24°C° 0.9 mm 3 mps 705 mmHg 83%
21:00 +24°C° 0.9 mm 3 mps 706 mmHg 84%
22:00 +22°C° 0.6 mm 3 mps 706 mmHg 85%
23:00 +22°C° 0.6 mm 3 mps 706 mmHg 87%

24 October, Saturday

Time Temperature Precipitation Wind Pressure Humidity
00:00 +22°C° 0.6 mm 3 mps 706 mmHg 88%
01:00 +21°C° 1.8 mm 3 mps 705 mmHg 90%
02:00 +21°C° 1.8 mm 2 mps 705 mmHg 92%
03:00 +21°C° 1.8 mm 2 mps 705 mmHg 94%
04:00 +21°C° 3.3 mm 3 mps 705 mmHg 94%
05:00 +20°C° 3.3 mm 3 mps 706 mmHg 95%
06:00 +20°C° 3.3 mm 3 mps 706 mmHg 96%
07:00 +20°C° 4.6 mm 3 mps 706 mmHg 96%
08:00 +20°C° 4.6 mm 4 mps 707 mmHg 96%
09:00 +20°C° 4.6 mm 4 mps 707 mmHg 96%
10:00 +20°C° 4 mm 4 mps 707 mmHg 96%
11:00 +20°C° 4 mm 4 mps 707 mmHg 95%
12:00 +20°C° 4 mm 4 mps 707 mmHg 95%
13:00 +20°C° 3.3 mm 4 mps 706 mmHg 95%
14:00 +20°C° 3.3 mm 4 mps 706 mmHg 95%
15:00 +20°C° 3.3 mm 4 mps 705 mmHg 95%
16:00 +20°C° 1.8 mm 4 mps 705 mmHg 95%
17:00 +19°C° 1.8 mm 4 mps 705 mmHg 95%
18:00 +19°C° 1.8 mm 4 mps 705 mmHg 95%
19:00 +19°C° 0.8 mm 3 mps 705 mmHg 95%
20:00 +19°C° 0.8 mm 3 mps 706 mmHg 95%
21:00 +19°C° 0.8 mm 3 mps 706 mmHg 95%
22:00 +19°C° 1.1 mm 2 mps 706 mmHg 95%
23:00 +19°C° 1.1 mm 2 mps 705 mmHg 95%

25 October, Sunday

Time Temperature Precipitation Wind Pressure Humidity
00:00 +19°C° 1.1 mm 2 mps 705 mmHg 96%
01:00 +19°C° 0.6 mm 2 mps 705 mmHg 96%
02:00 +19°C° 0.6 mm 2 mps 705 mmHg 96%
03:00 +19°C° 0.6 mm 2 mps 704 mmHg 97%
04:00 +19°C° 1.6 mm 2 mps 704 mmHg 97%
05:00 +19°C° 1.6 mm 2 mps 705 mmHg 97%
06:00 +20°C° 1.6 mm 2 mps 705 mmHg 97%
07:00 +20°C° 1.1 mm 2 mps 705 mmHg 96%
08:00 +20°C° 1.1 mm 2 mps 706 mmHg 96%
09:00 +20°C° 1.1 mm 2 mps 706 mmHg 96%
10:00 +21°C° 1 mm 2 mps 706 mmHg 93%
11:00 +23°C° 1 mm 2 mps 707 mmHg 89%
12:00 +24°C° 1 mm 2 mps 707 mmHg 86%
13:00 +24°C° 0.7 mm 2 mps 706 mmHg 86%
14:00 +24°C° 0.7 mm 2 mps 706 mmHg 85%
15:00 +24°C° 0.7 mm 2 mps 705 mmHg 85%
16:00 +24°C° 0.1 mm 2 mps 705 mmHg 87%
17:00 +23°C° 0.1 mm 2 mps 705 mmHg 88%
18:00 +23°C° 0.1 mm 2 mps 705 mmHg 90%
19:00 +21°C° 0 mm 2 mps 705 mmHg 91%
20:00 +22°C° 0 mm 1 mps 705 mmHg 93%
21:00 +22°C° 0 mm 1 mps 706 mmHg 94%
22:00 +22°C° 0 mm 1 mps 705 mmHg 95%
23:00 +21°C° 0 mm 1 mps 705 mmHg 95%
Show more